Regional Weather Roundup
Issued by NWS

Home | Current Version | Previous Version | Graphics & Text | Print | Product List | Glossary On
Versions: 1 2 3 4 5 6 7 8 9 10 11 12 13 14 15 16 17 18 19 20 21 22 23 24 25 26 27 28 29 30 31 32 33 34 35 36 37 38 39 40 41 42 43 44 45 46 47 48 49 50
000
ASUS45 KABQ 040210
RWRNM
NEW MEXICO REGIONAL WEATHER ROUNDUP
NATIONAL WEATHER SERVICE ALBUQUERQUE NM
700 PM MST SAT DEC 03 2016

NOTE: "FAIR" MEANS FEW OR NO CLOUDS BELOW 12,000 FEET AGL WITH NO
       SIGNIFICANT WEATHER OR OBSTRUCTIONS TO VISION.

      THIS PRODUCT IS RELEASED AS TWO VERSIONS.  ONE VERSION NEAR
      THE TOP OF THE HOUR CONTAINING PRELIMINARY DATA FROM ALBUQUERQUE
      AND OTHER STATIONS.  A FINAL VERSION WITH ADDITIONAL DATA IS
      ISSUED ABOUT 10 MINUTES AFTER THE HOUR.

NMZ501-503-504-510>518-040300-
NORTHWEST PLATEAU/NORTHCENTRAL MOUNTAINS

CITY           SKY/WX    TMP DP  RH WIND       PRES   REMARKS
FARMINGTON     FAIR      34  16  47 W22       30.05R WCI  22
LOS ALAMOS     FAIR      34  12  40 CALM      29.99F
SANTA FE       FAIR      33  19  56 N10       29.97R WCI  25
TAOS           FAIR      21  12  68 N13       30.03R WCI   9
ANGEL FIRE     FAIR      27  18  69 CALM      29.99R

$$
NMZ402-403-502-505>509-040300-
WESTCENTRAL MOUNTAINS/SOUTHWEST MOUNTAINS

CITY           SKY/WX    TMP DP  RH WIND       PRES   REMARKS
GALLUP         FAIR      28  22  78 CALM      30.08R
GRANTS         FAIR      28  24  85 NW10G16   30.07S WCI  18
SILVER CITY    CLOUDY    42  37  83 CALM      30.01R

$$
NMZ407-409-411-412-040300-
SOUTHERN DESERTS

CITY           SKY/WX    TMP DP  RH WIND       PRES   REMARKS
DEMING         CLOUDY    43  40  89 W5        30.00R
LAS CRUCES     CLOUDY    45  39  81 S6        30.00R
HOLLOMAN AFB   CLOUDY    45  40  82 SE3       30.02R
T OR C         CLOUDY    46  30  53 CALM      30.00R

$$
NMZ519>523-040300-
CENTRAL VALLEYS/CENTRAL HIGHLANDS

CITY           SKY/WX    TMP DP  RH WIND       PRES   REMARKS
ALBUQUERQUE    FAIR      38  26  62 NW16      30.03R WCI  29
DOUBLE EAGLE   CLEAR     34  25  69 W7        30.04R WCI  28
MORIARTY ARPT  FAIR      29  21  73 W6        30.00R WCI  23
CLINES CORNERS FAIR      28  22  78 NW13      29.98S WCI  17
BELEN          FAIR      36  26  67 N8        30.03S WCI  29
SOCORRO        FAIR      40  29  66 CALM      30.02R

$$
NMZ524>526-539-540-040300-
SOUTHCENTRAL MOUNTAINS

CITY           SKY/WX    TMP DP  RH WIND       PRES   REMARKS
RUIDOSO          N/A     32  32 100 W6        30.01R WCI  26

$$
NMZ527>531-040300-
NORTHEAST HIGHLANDS/NORTHEAST PLAINS

CITY           SKY/WX    TMP DP  RH WIND       PRES   REMARKS
LAS VEGAS      FAIR      26  23  88 N7        29.96R WCI  18
RATON          FAIR      26  21  81 N6        29.95R WCI  19
CLAYTON        FAIR      26  26 100 S8        29.95R WCI  18

$$
NMZ532>537-040300-
EASTCENTRAL PLAINS

CITY           SKY/WX    TMP DP  RH WIND       PRES   REMARKS
TUCUMCARI      FAIR      36  34  92 S6        29.96R WCI  31
CANNON AFB     CLOUDY    37  37 100 S3        29.98S
CLOVIS AIRPORT CLOUDY    37  34  87 CALM      29.99R

$$
NMZ028-029-538-040300-
SOUTHEAST PLAINS

CITY           SKY/WX    TMP DP  RH WIND       PRES   REMARKS
ROSWELL        MOCLDY    39  35  86 CALM      30.00R
ARTESIA        CLOUDY    39  39 100 NW5       30.01F
CARLSBAD       CLOUDY    38  38 100 NW8       30.00R WCI  32
HOBBS          MOCLDY    39  39 100 N5        30.00R


$$




USA.gov is the U.S. government's official web portal to all federal, state and local government web resources and services.